DIDO 3 (46284 NORAD) Tracking and Keplerian Element Data

This shows tracking and keplerian element data for the satellite.

Feedback or suggestion? Click here.




ElementValue
Catalog46284
NameDIDO 3
Epoch Orbit1257
Epoch Day330.84444377
Epoch Year2020
RAAN42.359
Inclination97.511
Eccentricity0.0005074
Argument of Perigee66.9638
Mean Anonmoly293.2126
Mean Motion15.09988297
Decay Rate1.154E-05
L11 46284U 20061N 20330.84444377 .00001154 00000-0 74942-4 0 9993
L22 46284 97.5110 42.3590 0005074 66.9638 293.2126 15.09988297 12574

Live tracking and technical data element details for DIDO 3 (NORAD 46284). DIDO 3 can be tracked NOW for your location showing map with azimuth and elevation plus other details from your city location.

Track the satellite on the map from your city or location and see movement details for azimuth, elevation, latitude, longitude, range, height, and movement on the map or in text.







IsCatalogInMostPopularTable: catalog: 46284, numindb: 14
Update: records affected: 1



GetName: 46284 DIDO 3

Hit Count: updated at: Thu, 26 Nov 2020 23:43:02 GMT